TimeEST,TemperatureF,Dew PointF,Humidity,Sea Level PressureIn,VisibilityMPH,Wind Direction,Wind SpeedMPH,Gust SpeedMPH,PrecipitationIn,Events,Conditions,WindDirDegrees,DateUTC
12:15 AM,29.1,27.5,94,30.42,10.0,Calm,Calm,-,N/A,,Clear,0,2013-01-08 05:15:00
12:35 AM,28.4,27.5,96,30.42,7.0,Calm,Calm,-,N/A,,Clear,0,2013-01-08 05:35:00
12:55 AM,28.4,27.1,95,30.41,10.0,Calm,Calm,-,N/A,,Clear,0,2013-01-08 05:55:00
1:15 AM,28.0,27.0,96,30.41,10.0,Calm,Calm,-,N/A,,Clear,0,2013-01-08 06:15:00
1:40 AM,28.0,27.3,97,30.41,7.0,Calm,Calm,-,N/A,,Clear,0,2013-01-08 06:40:00
2:00 AM,28.8,27.3,94,30.41,7.0,Calm,Calm,-,N/A,,Clear,0,2013-01-08 07:00:00
2:20 AM,27.5,26.6,96,30.41,7.0,Calm,Calm,-,N/A,,Clear,0,2013-01-08 07:20:00
2:45 AM,27.1,26.4,97,30.41,7.0,Calm,Calm,-,N/A,,Clear,0,2013-01-08 07:45:00
3:05 AM,27.1,26.4,97,30.40,7.0,Calm,Calm,-,N/A,,Clear,0,2013-01-08 08:05:00
3:25 AM,26.4,25.5,96,30.40,7.0,Calm,Calm,-,N/A,,Clear,0,2013-01-08 08:25:00
3:40 AM,26.6,25.9,97,30.40,7.0,Calm,Calm,-,N/A,,Clear,0,2013-01-08 08:40:00
4:10 AM,26.1,25.3,97,30.40,7.0,Calm,Calm,-,N/A,,Clear,0,2013-01-08 09:10:00
4:25 AM,26.4,26.4,100,30.39,5.0,Calm,Calm,-,N/A,,Clear,0,2013-01-08 09:25:00
4:50 AM,27.3,26.6,97,30.39,7.0,Calm,Calm,-,N/A,,Clear,0,2013-01-08 09:50:00
5:10 AM,26.6,26.1,98,30.40,7.0,Calm,Calm,-,N/A,,Clear,0,2013-01-08 10:10:00
5:35 AM,27.1,26.6,98,30.40,7.0,SSE,3.5,-,N/A,,Clear,150,2013-01-08 10:35:00
5:55 AM,30.4,28.6,93,30.40,10.0,SSE,4.6,-,N/A,,Clear,150,2013-01-08 10:55:00
6:15 AM,30.6,27.9,90,30.40,10.0,Calm,Calm,-,N/A,,Clear,0,2013-01-08 11:15:00
6:35 AM,32.0,30.2,93,30.41,10.0,Calm,Calm,-,N/A,,Clear,0,2013-01-08 11:35:00
7:00 AM,29.3,28.4,96,30.41,10.0,Calm,Calm,-,N/A,,Clear,0,2013-01-08 12:00:00
7:40 AM,28.4,28.2,99,30.43,7.0,Calm,Calm,-,N/A,,Clear,0,2013-01-08 12:40:00
8:00 AM,30.2,30.0,99,30.43,7.0,Calm,Calm,-,N/A,,Clear,0,2013-01-08 13:00:00
8:25 AM,31.1,30.7,99,30.43,7.0,Calm,Calm,-,N/A,,Clear,0,2013-01-08 13:25:00
9:05 AM,37.6,33.4,85,30.43,10.0,Calm,Calm,-,N/A,,Clear,0,2013-01-08 14:05:00
9:25 AM,41.2,33.4,74,30.43,10.0,Calm,Calm,-,N/A,,Clear,0,2013-01-08 14:25:00
9:50 AM,43.0,33.6,70,30.42,10.0,Calm,Calm,-,N/A,,Clear,0,2013-01-08 14:50:00
10:10 AM,44.6,34.0,66,30.43,10.0,South,6.9,-,N/A,,Clear,190,2013-01-08 15:10:00
10:30 AM,45.5,34.2,65,30.43,10.0,SSW,6.9,-,N/A,,Clear,200,2013-01-08 15:30:00
10:50 AM,46.8,34.5,62,30.43,10.0,SSW,5.8,-,N/A,,Clear,200,2013-01-08 15:50:00
11:15 AM,48.6,34.5,58,30.41,10.0,SW,4.6,-,N/A,,Clear,220,2013-01-08 16:15:00
11:55 AM,49.3,34.2,56,30.40,10.0,SSW,5.8,-,N/A,,Clear,210,2013-01-08 16:55:00
12:15 PM,50.4,34.3,54,30.40,10.0,South,6.9,-,N/A,,Clear,190,2013-01-08 17:15:00
12:40 PM,51.1,34.7,54,30.39,10.0,South,5.8,-,N/A,,Clear,180,2013-01-08 17:40:00
1:00 PM,51.8,34.7,52,30.38,10.0,SSW,3.5,-,N/A,,Clear,200,2013-01-08 18:00:00
1:20 PM,51.8,33.8,50,30.37,10.0,South,4.6,-,N/A,,Clear,190,2013-01-08 18:20:00
1:40 PM,52.7,34.2,49,30.38,10.0,SSE,5.8,-,N/A,,Clear,160,2013-01-08 18:40:00
2:00 PM,52.2,34.5,51,30.38,10.0,SSE,4.6,-,N/A,,Clear,160,2013-01-08 19:00:00
2:45 PM,53.8,34.2,47,30.37,10.0,SE,3.5,-,N/A,,Clear,130,2013-01-08 19:45:00
3:05 PM,54.1,34.0,47,30.38,10.0,South,3.5,-,N/A,,Clear,170,2013-01-08 20:05:00
3:30 PM,54.5,33.1,44,30.38,10.0,Calm,Calm,-,N/A,,Clear,0,2013-01-08 20:30:00
3:50 PM,54.1,33.8,46,30.39,10.0,Calm,Calm,-,N/A,,Clear,0,2013-01-08 20:50:00
4:10 PM,54.5,33.3,45,30.38,10.0,Calm,Calm,-,N/A,,Clear,0,2013-01-08 21:10:00
4:30 PM,53.8,33.3,46,30.38,10.0,Calm,Calm,-,N/A,,Clear,0,2013-01-08 21:30:00
4:55 PM,50.5,34.5,54,30.38,10.0,Calm,Calm,-,N/A,,Scattered Clouds,0,2013-01-08 21:55:00
5:15 PM,47.8,34.3,60,30.38,10.0,Calm,Calm,-,N/A,,Clear,0,2013-01-08 22:15:00
5:35 PM,44.8,34.2,66,30.38,10.0,Calm,Calm,-,N/A,,Clear,0,2013-01-08 22:35:00
5:55 PM,43.2,35.1,73,30.38,10.0,Calm,Calm,-,N/A,,Clear,0,2013-01-08 22:55:00
6:20 PM,41.5,34.2,75,30.38,10.0,Calm,Calm,-,N/A,,Scattered Clouds,0,2013-01-08 23:20:00
6:40 PM,42.1,34.9,76,30.39,10.0,Calm,Calm,-,N/A,,Mostly Cloudy,0,2013-01-08 23:40:00
7:00 PM,41.9,34.5,75,30.40,10.0,Calm,Calm,-,N/A,,Mostly Cloudy,0,2013-01-09 00:00:00
7:20 PM,40.6,35.6,82,30.40,10.0,Calm,Calm,-,N/A,,Scattered Clouds,0,2013-01-09 00:20:00
8:25 PM,37.2,34.2,89,30.38,10.0,Calm,Calm,-,N/A,,Clear,0,2013-01-09 01:25:00
8:45 PM,36.0,34.7,95,30.39,10.0,Calm,Calm,-,N/A,,Clear,0,2013-01-09 01:45:00
9:10 PM,36.0,35.4,98,30.40,10.0,Calm,Calm,-,N/A,,Clear,0,2013-01-09 02:10:00
9:50 PM,34.7,32.7,92,30.40,10.0,Calm,Calm,-,N/A,,Clear,0,2013-01-09 02:50:00
10:10 PM,33.8,32.9,96,30.40,10.0,Calm,Calm,-,N/A,,Clear,0,2013-01-09 03:10:00
10:35 PM,33.8,33.8,100,30.40,7.0,Calm,Calm,-,N/A,,Clear,0,2013-01-09 03:35:00
10:55 PM,32.9,32.9,100,30.40,10.0,Calm,Calm,-,N/A,,Clear,0,2013-01-09 03:55:00
11:15 PM,32.2,32.0,99,30.39,7.0,Calm,Calm,-,N/A,,Clear,0,2013-01-09 04:15:00